Weather History for LGAL - October, 2013

Change the Weather History Date:

Saturday, October 5, 2013

  Actual Average Record
Temperature  
Mean Temperature 46 °F -  
Max Temperature 57 °F 66 °F 83 °F (2012)
Min Temperature 34 °F 49 °F 34 °F (2013)
Degree Days  
Heating Degree Days 20    
Moisture  
Dew Point 32 °F    
Average Humidity 57    
Maximum Humidity 87    
Minimum Humidity 21    
Precipitation  
Precipitation 0.00 in 0.07 in - ()
Sea Level Pressure  
Sea Level Pressure 30.39 in    
Wind  
Wind Speed - ()    
Max Wind Speed -    
Max Gust Speed -    
Visibility 6.0 miles    
Events      
Averages and records for this station are not official NWS values.
T = Trace of Precipitation, MM = Missing Value Source: Averaged Metar Reports

Daily Weather History Graph

Daily Weather History Graph

Search for Another Location

Airport or City:

Trip Planner

Search our weather history database for the weather conditions in past years. The results will help you decide how hot, cold, wet, or windy it might be!

Date:

Astronomy

Oct. 05, 2013 Rise Set
Actual Time 7:16 AM EEST 6:51 PM EEST
Civil Twilight 6:49 AM EEST 7:19 PM EEST
Nautical Twilight 6:17 AM EEST 7:50 PM EEST
Astronomical Twilight 5:45 AM EEST 8:22 PM EEST
Moon 7:35 AM EEST (10/5) 6:58 PM EEST (10/5)
Length of Visible Light 12h 29m
Length of Day
11h 34m
New Moon, 0% of the Moon is Illuminated
Oct 5
New Moon
Oct 12
First Quarter
Oct 19
Full
Oct 27
Last Quarter
Nov 3
New

Hourly Weather History & Observations

Time (EEST) Temp. Dew Point Humidity Pressure Visibility Wind Dir Wind Speed Gust Speed Precip Events Conditions
4:50 AM 39.2 °F 26.6 °F 61% 30.42 in - North - - N/A   Partly Cloudy
5:20 AM 39.2 °F 26.6 °F 61% 30.42 in - North - - N/A   Partly Cloudy
5:50 AM 35.6 °F 30.2 °F 81% 30.42 in - North - - N/A   Partly Cloudy
6:20 AM 35.6 °F 30.2 °F 81% 30.42 in - North - - N/A   Partly Cloudy
6:50 AM 35.6 °F 30.2 °F 81% 30.42 in - North - - N/A   Partly Cloudy
7:20 AM 35.6 °F 30.2 °F 81% 30.42 in - North - - N/A   Partly Cloudy
7:50 AM 33.8 °F 30.2 °F 87% 30.42 in - North - - N/A   Partly Cloudy
8:20 AM 35.6 °F 30.2 °F 81% 30.42 in - North - - N/A   Partly Cloudy
8:50 AM 39.2 °F 32.0 °F 75% 30.42 in - North - - N/A   Partly Cloudy
9:00 AM 38 °F 33 °F 74% 30.43 in 6 mi Calm Calm - -   Scattered Clouds
9:20 AM 42.8 °F 33.8 °F 70% 30.42 in - North - - N/A   Partly Cloudy
9:50 AM 46.4 °F 37.4 °F 71% 30.42 in - North - - N/A   Partly Cloudy
10:20 AM 48.2 °F 37.4 °F 66% 30.42 in - North - - N/A   Partly Cloudy
10:50 AM 50.0 °F 37.4 °F 62% 30.42 in - North - - N/A   Partly Cloudy
11:20 AM 51.8 °F 37.4 °F 58% 30.42 in - North - - N/A   Partly Cloudy
11:50 AM 53.6 °F 26.6 °F 35% 30.42 in - North - - N/A   Partly Cloudy
12:20 PM 53.6 °F 26.6 °F 35% 30.42 in - North - - N/A   Partly Cloudy
12:50 PM 53.6 °F 26.6 °F 35% 30.39 in - North - - N/A   Partly Cloudy
1:20 PM 53.6 °F 26.6 °F 35% 30.39 in - North - - N/A   Partly Cloudy
1:50 PM 55.4 °F 24.8 °F 31% 30.39 in - North - - N/A   Partly Cloudy
2:20 PM 55.4 °F 24.8 °F 31% 30.39 in - North - - N/A   Partly Cloudy
2:50 PM 57.2 °F 28.4 °F 33% 30.36 in - North - - N/A   Partly Cloudy
3:00 PM 56 °F 28 °F 21% 30.38 in 6 mi Calm Calm - -   Scattered Clouds
3:20 PM 57.2 °F 28.4 °F 33% 30.36 in - North - - N/A   Partly Cloudy
3:50 PM 57.2 °F 26.6 °F 31% 30.36 in - North - - N/A   Partly Cloudy
4:20 PM 57.2 °F 26.6 °F 31% 30.36 in - North - - N/A   Partly Cloudy
4:50 PM 57.2 °F 51.8 °F 82% 30.36 in - North - - N/A   Partly Cloudy
5:20 PM 57.2 °F 51.8 °F 82% 30.36 in - North - - N/A   Partly Cloudy
5:50 PM 55.4 °F 26.6 °F 33% 30.36 in - North - - N/A   Partly Cloudy
6:20 PM 55.4 °F 26.6 °F 33% 30.36 in - North - - N/A   Partly Cloudy
6:50 PM 53.6 °F 33.8 °F 47% 30.36 in - North - - N/A   Partly Cloudy
7:20 PM 50.0 °F 33.8 °F 54% 30.36 in - North - - N/A   Clear
7:50 PM 48.2 °F 35.6 °F 62% 30.36 in - North - - N/A   Clear
8:20 PM 46.4 °F 35.6 °F 66% 30.36 in - North - - N/A   Clear
8:50 PM 44.6 °F 35.6 °F 71% 30.36 in - North - - N/A   Clear
9:00 PM 45 °F 35 °F 58% 30.37 in 6 mi Calm Calm - -  
9:20 PM 44.6 °F 35.6 °F 71% 30.36 in - North - - N/A   Clear